KC7RJK-2 Weather Reports


time (UTC)temp
F
wind
direction
speed
knots
gust
knots
rain 1hr
in
rain 24hr
in
rain mn
in
humidity
%
barometer
mb
20260505231009 68 103 0.9 5.2 0.00 0.00 0.00 71 1015.4
20260505230009 68 230 0.0 2.6 0.00 0.00 0.00 69 1015.4
20260505225008 67 342 1.7 5.2 0.00 0.00 0.00 67 1015.6
20260505224008 68 342 2.6 7.8 0.00 0.00 0.00 68 1015.6
20260505222948 66 268 0.9 4.3 0.00 0.00 0.00 71 1015.8
20260505222010 65 16 0.0 5.2 0.00 0.00 0.00 71 1015.9
20260505221009 64 221 0.0 2.6 0.00 0.00 0.00 74 1016.0
20260505220009 64 317 0.9 6.1 0.00 0.00 0.00 72 1016.1
20260505215008 64 50 0.0 3.5 0.00 0.00 0.00 71 1016.1
20260505214009 64 337 2.6 3.5 0.00 0.00 0.00 71 1016.1
20260505213011 64 14 1.7 4.3 0.00 0.00 0.00 72 1016.3
20260505212009 64 338 0.0 6.1 0.00 0.00 0.00 73 1016.2
20260505211009 64 7 3.5 5.2 0.00 0.00 0.00 73 1016.3
20260505210012 63 319 0.9 2.6 0.00 0.00 0.00 75 1016.4
20260505205009 62 268 2.6 2.6 0.00 0.00 0.00 73 1016.5
20260505204009 62 278 2.6 4.3 0.00 0.00 0.00 73 1016.4
20260505203009 62 4 1.7 4.3 0.00 0.00 0.00 76 1016.4
20260505202008 61 11 0.0 5.2 0.00 0.00 0.00 75 1016.4
20260505201008 61 351 0.0 1.7 0.00 0.00 0.00 75 1016.6
20260505200013 61 309 0.9 3.5 0.00 0.00 0.00 76 1016.6
20260505195010 61 286 2.6 3.5 0.00 0.00 0.00 76 1016.6
20260505194009 60 338 2.6 3.5 0.00 0.00 0.00 77 1016.7
20260505193011 60 19 0.0 3.5 0.00 0.00 0.00 76 1016.7
20260505192009 60 346 0.0 2.6 0.00 0.00 0.00 77 1016.7
20260505191008 60 326 1.7 3.5 0.00 0.00 0.00 77 1016.7
20260505190008 60 7 0.9 3.5 0.00 0.00 0.00 77 1016.6
20260505185010 60 358 1.7 3.5 0.00 0.00 0.00 77 1016.6
20260505184010 59 88 0.0 2.6 0.00 0.00 0.00 78 1016.6
20260505183011 59 3 1.7 2.6 0.00 0.00 0.00 78 1016.6
20260505182009 59 176 0.0 1.7 0.00 0.00 0.00 78 1016.5
20260505181010 58 110 0.0 0.9 0.00 0.00 0.00 78 1016.4
20260505180012 58 110 0.0 0.0 0.00 0.00 0.00 79 1016.4
20260505175010 58 110 0.0 1.7 0.00 0.00 0.00 80 1016.4
20260505174009 58 111 0.9 0.9 0.00 0.00 0.00 79 1016.4
20260505173010 58 111 0.0 2.6 0.00 0.00 0.00 81 1016.4
20260505172009 58 122 0.0 1.7 0.00 0.00 0.00 80 1016.4
20260505171009 58 126 0.0 1.7 0.00 0.00 0.00 81 1016.3
20260505170009 57 290 0.0 0.0 0.00 0.00 0.00 80 1016.3
20260505165008 57 290 0.0 0.9 0.00 0.00 0.00 81 1016.3
20260505164008 57 288 0.0 1.7 0.00 0.00 0.00 81 1016.3
20260505163011 57 288 0.0 0.0 0.00 0.00 0.00 80 1016.3
20260505162010 57 290 0.0 1.7 0.00 0.00 0.00 81 1016.3
20260505161008 57 288 0.9 2.6 0.00 0.00 0.00 82 1016.3
20260505153014 56 259 0.0 2.6 0.00 0.00 0.00 83 1016.3
20260505152009 56 222 0.0 2.6 0.00 0.00 0.00 83 1016.2
20260505151010 56 211 0.9 1.7 0.00 0.00 0.00 83 1016.2
20260505125009 54 235 0.9 3.5 0.00 0.00 0.00 86 1015.5
20260505124009 54 222 1.7 2.6 0.00 0.00 0.00 86 1015.3
20260505123010 54 253 0.0 2.6 0.00 0.00 0.00 86 1015.3
20260505122008 54 255 0.9 3.5 0.00 0.00 0.00 87 1015.1
20260505121009 54 214 1.7 2.6 0.00 0.00 0.00 87 1015.0
20260505120012 54 286 0.0 2.6 0.00 0.00 0.00 87 1015.2
20260505115010 54 227 2.6 3.5 0.00 0.00 0.00 87 1015.1
20260505114009 54 220 0.0 2.6 0.00 0.00 0.00 87 1015.1
20260505113010 54 268 0.9 2.6 0.00 0.00 0.00 87 1015.2
20260505112009 54 220 1.7 2.6 0.00 0.00 0.00 88 1015.2
20260505111009 54 221 0.0 2.6 0.00 0.00 0.00 88 1015.2
20260505102010 54 213 0.0 3.5 0.00 0.00 0.00 87 1014.9
20260505101010 54 273 2.6 4.3 0.00 0.00 0.00 87 1014.9
20260505100012 54 222 0.9 2.6 0.00 0.00 0.00 87 1014.9
20260505095009 54 215 1.7 4.3 0.00 0.00 0.00 87 1014.9
20260505094009 54 181 2.6 3.5 0.00 0.00 0.00 87 1014.9
20260505093009 55 251 1.7 5.2 0.00 0.00 0.00 87 1014.8
20260505092009 55 225 2.6 4.3 0.00 0.00 0.00 87 1014.8
20260505091008 55 210 1.7 4.3 0.00 0.00 0.00 86 1014.8
20260505090009 55 208 0.0 5.2 0.00 0.00 0.00 86 1014.7
20260505085008 55 209 0.0 2.6 0.00 0.00 0.00 86 1014.8
20260505084010 55 223 0.0 6.1 0.00 0.00 0.00 86 1014.8
20260505083011 55 210 0.0 4.3 0.00 0.00 0.00 86 1014.9
20260505082009 55 226 1.7 5.2 0.00 0.00 0.00 86 1014.9
20260505081009 55 229 0.0 2.6 0.00 0.00 0.00 86 1014.9
20260505080009 55 213 1.7 4.3 0.00 0.00 0.00 86 1014.9
20260505075009 55 240 1.7 7.8 0.00 0.00 0.00 86 1014.9
20260505074008 55 248 2.6 6.1 0.00 0.00 0.00 85 1014.9
20260505073010 55 217 0.9 5.2 0.00 0.00 0.00 85 1015.0
20260505072008 55 238 0.9 5.2 0.00 0.00 0.00 85 1014.9
20260505071009 55 252 0.0 5.2 0.00 0.00 0.00 85 1014.8
20260505070009 55 203 0.0 5.2 0.00 0.00 0.00 85 1014.8
20260505065008 55 236 2.6 7.0 0.00 0.00 0.00 85 1014.8
20260505064008 55 231 2.6 4.3 0.00 0.00 0.00 85 1014.8
20260505063011 56 238 2.6 5.2 0.00 0.00 0.00 85 1014.7
20260505062009 56 233 4.3 7.0 0.00 0.00 0.00 85 1014.7
20260505061009 56 268 0.9 7.0 0.00 0.00 0.00 84 1014.7
20260505060009 56 231 0.0 5.2 0.00 0.00 0.00 84 1014.7
20260505055008 56 232 2.6 6.1 0.00 0.00 0.00 84 1014.7
20260505054008 56 236 0.9 7.0 0.00 0.00 0.00 84 1014.6
20260505053011 56 191 1.7 7.8 0.00 0.00 0.00 84 1014.5
20260505052010 56 205 1.7 7.0 0.00 0.00 0.00 83 1014.4
20260505051009 56 178 1.7 8.7 0.00 0.00 0.00 84 1014.5
20260505041009 55 225 3.5 5.2 0.00 0.00 0.00 85 1013.8
20260505040011 56 210 0.9 4.3 0.00 0.00 0.00 84 1013.6
20260505035009 56 213 0.0 5.2 0.00 0.00 0.00 84 1013.6
20260505034009 56 172 1.7 6.1 0.00 0.00 0.00 83 1013.5
20260505033009 57 215 2.6 7.0 0.00 0.00 0.00 82 1013.3
20260505032008 57 230 6.1 9.6 0.00 0.00 0.00 81 1013.2
20260505031009 58 208 2.6 8.7 0.00 0.00 0.00 81 1013.1
20260505030009 58 209 3.5 8.7 0.00 0.00 0.00 80 1012.8
20260505025009 59 244 1.7 8.7 0.00 0.00 0.00 79 1012.6
20260505024008 60 244 8.7 11.3 0.00 0.00 0.00 78 1012.4
20260505023009 60 252 3.5 8.7 0.00 0.00 0.00 77 1012.4
20260505022011 61 211 7.8 10.4 0.00 0.00 0.00 76 1012.3
20260505021013 62 195 3.5 11.3 0.00 0.00 0.00 74 1012.2
20260505020010 63 282 6.1 10.4 0.00 0.00 0.00 73 1012.3
20260505015009 64 191 2.6 12.2 0.00 0.00 0.00 72 1012.3
20260505014011 64 261 5.2 11.3 0.00 0.00 0.00 71 1012.2
20260505013009 65 294 5.2 8.7 0.00 0.00 0.00 70 1012.3
20260505012009 66 208 2.6 8.7 0.00 0.00 0.00 70 1012.3
20260505011008 65 222 5.2 12.2 0.00 0.00 0.00 70 1012.3
20260505010009 66 249 5.2 11.3 0.00 0.00 0.00 70 1012.3
20260505005008 66 273 6.1 10.4 0.00 0.00 0.00 70 1012.4
20260505004009 67 258 7.8 11.3 0.00 0.00 0.00 68 1012.4
20260505003009 67 232 5.2 11.3 0.00 0.00 0.00 68 1012.2
20260505002008 68 290 6.1 10.4 0.00 0.00 0.00 68 1012.3
20260505001008 68 197 2.6 8.7 0.00 0.00 0.00 67 1012.3
20260505000008 68 263 6.1 8.7 0.00 0.00 0.00 69 1012.3
20260504235010 68 230 6.1 9.6 0.00 0.00 0.00 68 1012.3
20260504234010 68 215 2.6 8.7 0.00 0.00 0.00 67 1012.2
20260504233011 68 212 7.0 7.8 0.00 0.00 0.00 70 1012.4
20260504232009 68 244 6.1 10.4 0.00 0.00 0.00 68 1012.4